Theta_e
292 293 293 293 293 294 294 295 296 295 295 294 295 295 294 294 295 295 294 295 294 294 294 294 294 296 296 297 298 300 302 303 309 286 288 289 287 287 286 288 288 288 289
290 290 290 291 291 291 291 291 293 292 292 293 292 293 291 291 291 291 290 290 290 290 291 292 291 293 292 293 294 292 292 293 290 286 285 285 285 285 285 285 286 288 287
288 287 287 288 288 288 290 290 290 290 290 291 290 289 288 289 289 289 288 288 288 287 288 288 288 290 289 290 291 290 290 290 290 287 284 284 284 284 284 284 285 284 286
285 285 285 285 286 286 287 287 288 289 288 288 288 288 288 287 287 287 287 286 286 286 286 286 286 287 287 288 288 288 288 287 287 286 284 283 283 282 283 282 281 281 281
284 284 284 285 285 285 285 285 286 286 286 287 287 287 287 287 286 285 285 284 284 283 283 284 285 286 287 287 287 286 287 287 286 285 284 282 281 281 281 280 280 278 279
283 283 284 284 284 284 283 283 284 284 284 284 284 284 284 285 287 286 284 282 281 280 279 280 280 281 284 285 286 287 285 283 283 283 281 280 279 278 278 278 278 277 276
282 283 283 283 282 282 282 282 282 282 283 282 283 283 283 284 285 284 283 281 281 280 280 279 279 279 280 280 283 283 283 284 283 280 278 277 277 277 277 277 276 276 275
280 281 282 282 281 281 281 281 281 281 281 281 281 282 282 283 285 284 282 280 279 280 280 280 280 281 280 279 278 278 278 280 279 279 277 277 277 277 277 276 275 275 274
280 280 280 280 280 280 280 280 280 281 280 281 281 281 281 282 285 284 281 280 280 280 281 281 281 281 283 282 278 277 276 276 281 283 283 282 282 282 279 276 272 271 268
279 279 280 280 280 279 280 279 280 280 280 281 281 281 281 282 285 284 282 280 279 279 279 280 283 282 284 281 278 277 275 276 276 277 277 278 278 278 278 275 273 268 267
278 279 279 280 280 279 279 279 278 278 278 278 278 278 279 280 283 285 283 280 279 278 278 278 280 284 283 283 282 278 277 276 275 274 274 274 275 275 274 274 275 272 268
276 276 276 277 278 278 277 277 276 276 276 275 275 275 276 278 282 284 284 282 281 278 277 277 278 282 283 282 280 281 280 275 269 269 269 270 271 271 272 271 270 270 271
272 273 272 273 276 276 274 275 275 275 274 273 274 274 273 277 279 285 285 284 282 278 278 280 282 282 281 280 281 280 272 269 268 266 268 269 270 270 268 267 268 266 267
268 270 272 271 271 271 274 274 273 272 272 272 272 272 276 278 279 280 280 280 281 280 281 279 280 280 281 278 274 275 273 271 270 268 267 268 268 266 264 267 265 264 260
268 268 269 269 269 271 273 271 273 272 273 276 276 277 277 279 281 284 283 281 281 281 277 277 276 276 274 272 271 271 269 269 268 268 265 264 265 265 265 263 261 257 259
267 268 267 268 268 269 274 276 283 283 283 283 282 281 280 281 281 283 282 281 281 284 272 270 270 270 268 268 266 266 266 265 266 265 263 262 263 262 261 260 259 256 256
264 266 265 267 267 266 271 274 274 279 280 279 279 279 279 278 278 278 278 277 276 271 264 265 265 266 265 265 264 264 263 264 262 261 261 260 261 259 259 258 259 259 257
259 262 263 264 264 270 273 273 274 274 272 269 272 274 276 275 274 274 273 267 260 261 260 259 259 261 261 260 259 258 258 258 257 258 257 257 256 257 256 255 257 257 257
261 262 261 261 268 272 272 273 271 268 265 259 259 264 264 271 270 269 267 256 253 253 251 253 253 253 254 253 254 253 253 253 254 253 254 253 254 254 254 255 256 258 257
259 262 260 260 263 265 266 264 262 259 258 256 256 255 255 256 253 254 255 252 252 251 251 251 251 250 250 250 250 250 250 251 251 251 252 252 253 252 253 253 253 253 252
256 257 259 258 259 258 258 258 258 257 255 254 257 263 264 253 250 250 250 252 250 251 251 250 249 248 248 248 249 251 251 255 255 255 256 256 255 253 253 255 253 252 253
255 254 254 254 256 257 255 256 255 254 253 253 255 260 264 252 251 250 250 250 249 249 249 249 248 250 251 251 251 252 253 254 255 255 256 257 257 256 255 252 250 249 249
255 255 254 254 254 255 255 252 252 252 252 251 252 252 251 249 249 248 248 247 247 249 250 251 251 254 254 254 254 254 254 256 256 254 256 257 256 255 253 252 251 248 247
254 254 254 252 253 252 252 251 252 253 251 250 249 249 249 248 247 248 247 247 249 250 251 253 254 255 256 256 256 254 253 254 254 255 254 256 257 258 255 254 255 252 252
251 252 252 252 251 251 251 251 251 249 249 250 248 248 247 249 248 248 249 250 251 252 254 255 255 254 254 254 254 254 254 256 254 254 253 252 257 260 259 254 256 256 254
251 251 250 250 250 249 249 250 249 249 249 249 248 247 247 248 249 250 251 252 253 254 255 255 255 254 253 254 253 254 256 260 260 259 259 260 259 260 258 257 254 256 256
Wind_Speed
6 5 6 6 8 7 6 6 6 7 10 11 6 7 8 7 7 7 7 7 7 6 6 7 8 7 4 4 3 3 2 2 11 3 3 4 3 7 5 5 5 5 3
7 7 8 10 9 8 9 8 10 11 11 10 7 9 9 9 8 8 9 8 9 9 9 9 8 4 7 6 5 7 5 4 3 4 2 3 4 4 4 5 3 3 2
8 9 11 10 10 10 10 9 12 11 11 10 10 11 10 10 10 10 10 10 11 10 10 11 10 9 9 6 7 6 6 6 5 5 4 2 4 2 4 4 3 3 2
9 11 11 10 11 10 11 12 12 11 11 12 13 12 11 10 11 11 11 10 12 13 13 11 10 10 8 7 7 7 6 9 8 7 6 5 4 4 3 2 2 2 0
12 12 11 9 12 12 12 14 13 13 12 12 13 13 12 12 9 11 11 11 12 12 12 11 11 12 17 14 5 6 7 7 6 6 3 2 2 1 1 1 2 2 2
12 12 10 12 12 12 14 13 13 13 12 13 13 12 12 9 19 19 13 11 10 11 10 9 8 10 15 21 22 23 14 6 5 3 2 3 2 2 2 1 2 1 1
13 11 11 13 14 10 12 14 13 14 11 13 13 12 13 12 19 19 16 9 9 9 8 7 8 7 8 8 16 20 20 21 15 4 5 3 3 2 2 2 2 2 1
13 13 11 11 11 11 13 12 12 10 11 11 11 10 10 10 17 18 17 10 10 10 8 8 8 8 9 8 9 11 12 12 11 8 8 6 6 4 4 2 2 3 2
12 12 11 10 11 11 12 10 8 9 10 9 8 10 10 9 15 14 11 8 10 10 9 9 8 8 12 12 8 9 8 8 10 16 14 14 13 11 6 2 2 3 1
10 10 9 9 10 10 9 9 7 8 9 7 10 8 9 8 14 14 8 5 8 6 6 7 13 9 15 13 7 5 7 5 5 5 3 7 7 8 11 5 2 3 2
8 9 10 9 8 7 7 7 6 8 8 7 9 8 8 7 10 15 13 6 5 5 4 3 3 12 13 14 12 6 5 4 6 4 4 3 3 4 3 3 3 2 2
6 7 8 7 5 4 8 5 4 5 7 6 6 6 5 6 8 13 13 12 9 5 3 1 2 9 10 11 7 10 10 7 3 3 2 1 1 1 1 1 1 1 1
7 8 7 7 6 5 4 3 3 4 4 3 4 3 2 2 3 8 9 9 8 4 1 4 7 8 9 8 9 9 6 3 2 3 1 1 1 1 2 2 1 1 2
7 9 8 7 6 5 3 3 3 4 4 3 3 3 3 2 3 2 2 3 4 2 3 2 3 5 7 6 5 6 3 3 2 1 1 2 2 2 2 2 2 2 3
2 3 5 3 4 4 4 2 3 1 3 3 2 2 2 3 4 8 4 1 1 2 2 2 3 4 5 5 4 5 5 5 5 4 3 3 3 3 3 3 2 2 1
6 6 5 4 4 3 2 3 9 11 15 15 14 8 4 12 15 15 13 12 13 5 4 3 3 4 4 4 4 4 4 5 4 3 3 3 3 3 3 3 2 2 1
3 3 3 4 3 2 2 1 2 8 17 17 16 14 14 12 14 11 8 13 16 8 4 5 4 4 4 4 4 4 3 4 3 3 3 2 2 2 3 3 2 1 2
3 3 1 1 1 2 2 2 0 1 2 1 8 10 11 13 14 13 7 9 6 7 3 3 2 3 3 2 2 2 2 3 2 2 2 2 2 1 1 1 1 1 2
2 1 1 2 1 1 1 2 3 4 4 3 3 6 9 10 11 14 17 5 3 2 2 2 2 2 2 2 2 2 1 2 1 1 2 2 3 2 2 1 2 3 2
4 5 3 2 3 3 3 3 4 3 3 3 3 3 4 5 4 4 4 3 3 2 1 2 2 2 1 1 1 2 3 3 3 2 2 2 2 1 2 3 2 2 2
3 3 4 3 3 2 2 3 3 4 3 3 2 1 9 4 2 3 3 3 3 3 3 2 2 3 2 2 2 2 2 3 2 3 3 3 2 2 3 3 3 3 3
2 2 2 2 2 4 3 3 3 3 3 3 3 4 10 2 2 2 2 2 2 2 2 2 3 3 3 2 2 2 3 4 3 3 3 3 3 4 3 3 3 3 3
2 3 3 3 2 3 3 2 3 3 2 2 2 2 2 2 2 2 2 3 3 3 3 2 2 4 3 3 3 3 4 5 4 3 4 4 4 4 3 4 4 3 3
3 3 3 2 3 2 2 2 2 3 3 2 2 2 3 2 3 3 3 3 3 3 3 3 3 5 5 5 4 4 4 6 5 6 6 6 6 6 4 4 5 6 5
3 3 3 3 3 2 2 2 2 2 2 2 2 1 2 2 3 3 3 3 4 4 5 5 4 6 8 9 9 9 9 11 8 8 5 6 9 11 8 4 6 5 5
3 3 3 3 3 2 2 2 1 1 0 1 2 3 3 3 4 4 4 4 4 5 6 5 6 9 10 9 10 11 11 13 11 11 8 8 9 9 7 8 9 7 8
Wind_Direction
37 36 43 41 36 52 56 64 61 79 79 51 38 48 52 38 30 50 45 33 59 54 45 50 38 26 26 35 30 23 30 295 242 76 68 77 70 117 93 94 96 97 112
49 55 54 49 52 54 58 51 64 68 54 73 71 60 56 53 44 54 61 55 60 55 42 50 46 46 58 45 52 47 42 39 103 104 100 95 76 70 96 99 111 103 115
54 60 55 52 55 58 59 65 66 70 67 69 67 67 56 57 59 60 65 61 66 63 54 55 44 40 40 43 51 63 58 54 57 105 99 77 75 63 79 68 73 75 63
56 61 58 54 56 59 60 64 67 69 77 71 66 67 65 67 64 61 60 63 61 57 51 46 42 47 42 37 51 59 69 71 69 74 68 72 75 43 56 95 80 34 69
66 59 56 61 62 61 64 63 64 62 61 70 71 67 65 61 60 65 66 62 62 63 54 49 43 50 57 56 56 32 67 87 87 93 82 87 76 83 94 167 129 134 76
62 59 56 58 64 60 58 64 64 63 60 64 64 65 65 62 74 76 79 75 65 65 65 56 50 44 54 61 61 59 55 57 68 66 58 64 71 94 88 76 90 127 128
54 56 59 59 56 64 64 59 56 55 57 60 59 61 67 69 72 71 67 66 68 65 64 63 64 49 44 52 62 63 56 57 59 84 96 71 97 19 117 92 77 72 100
48 47 47 59 61 57 62 61 58 58 55 56 56 53 66 70 74 78 76 75 71 60 53 54 62 49 59 65 65 60 53 54 53 63 76 80 83 61 59 59 84 95 62
45 40 38 42 51 54 58 51 52 69 65 59 56 56 60 60 68 73 71 70 71 59 49 47 48 58 59 71 76 76 67 52 50 68 73 76 78 75 65 96 34 75 19
33 46 42 42 56 55 60 58 54 55 65 65 65 51 51 61 66 69 68 79 78 74 55 44 68 67 68 70 80 89 80 53 52 44 42 60 63 64 66 71 123 122 147
17 36 46 37 44 54 61 50 45 61 63 59 64 42 43 40 60 68 68 62 76 74 60 34 22 71 71 75 80 74 89 98 61 68 61 49 47 56 57 55 54 109 118
8 37 47 40 43 47 67 50 49 74 79 61 67 49 19 23 70 73 79 83 87 89 91 41 71 77 75 78 79 88 92 94 84 75 75 58 64 50 26 32 103 137 221
7 23 22 21 20 22 56 76 77 71 91 83 91 99 38 357 29 73 91 97 108 95 125 114 100 92 85 71 79 83 81 77 94 75 67 346 253 239 296 325 343 10 15
20 12 13 17 3 4 27 35 65 54 55 55 49 45 20 9 18 348 19 29 75 71 110 36 40 71 76 66 36 37 25 25 26 20 338 293 323 18 1 6 56 14 33
26 18 27 31 18 10 17 46 53 6 118 83 33 37 20 22 13 16 13 326 242 212 69 30 28 41 47 35 28 42 33 26 26 9 12 352 353 360 356 13 22 22 85
6 2 357 356 3 33 51 20 75 81 72 64 50 39 24 50 36 25 52 40 19 132 47 59 59 48 44 26 14 7 30 18 11 1 359 1 5 353 343 351 18 33 351
359 341 348 1 6 12 19 49 78 80 71 57 44 43 51 43 32 13 33 49 38 46 61 44 49 40 38 40 28 15 3 3 359 16 3 340 337 336 7 351 328 312 310
328 337 355 0 67 90 131 175 250 159 110 32 28 29 42 36 34 24 60 53 33 31 46 56 53 54 44 40 19 1 334 344 355 344 358 340 341 249 323 332 336 312 292
341 346 341 308 283 45 24 52 60 62 68 30 357 25 13 54 54 55 63 85 111 72 35 44 10 31 18 22 344 345 332 314 309 336 324 338 332 355 319 310 307 304 294
353 355 30 17 0 8 18 49 61 67 62 45 31 339 347 30 29 14 25 35 55 59 68 77 8 342 328 325 320 326 332 333 339 326 303 304 297 256 261 263 246 255 255
340 3 24 39 45 54 69 74 70 69 65 34 348 79 77 83 56 35 14 17 21 0 351 338 323 297 292 294 301 312 294 298 278 274 279 276 260 274 232 263 254 225 237
73 51 47 66 38 54 60 71 78 85 67 55 9 19 78 62 68 45 17 357 320 278 265 250 288 275 273 275 286 297 295 294 290 274 277 275 268 259 254 243 248 232 221
108 91 62 53 59 73 67 55 71 70 71 64 55 43 32 30 17 5 342 315 318 321 316 318 294 301 284 272 248 252 263 274 266 242 274 278 271 263 228 240 238 246 221
111 118 119 104 78 78 85 87 94 93 95 80 46 23 18 337 316 314 305 302 305 300 286 294 286 289 295 291 278 256 245 257 252 256 251 258 268 267 246 234 246 239 244
119 112 102 124 125 134 111 90 78 61 47 31 6 321 281 308 310 294 291 289 294 299 299 295 281 285 284 285 281 278 272 280 267 255 242 237 257 262 255 232 245 250 242
103 110 122 119 113 109 105 111 92 24 355 299 290 299 298 298 295 296 293 291 292 298 295 288 282 280 282 281 275 276 275 279 273 259 250 251 252 261 253 249 242 245 243